Regional Weather Roundup
Issued by NWS Charleston, WV

Home | Current Version | Previous Version | Graphics & Text | Print | Product List | Glossary On
Versions: 1 2 3 4 5 6 7 8 9 10 11 12 13 14 15 16 17 18 19 20 21 22 23 24 25 26 27 28
000
ASUS41 KRLX 152210
RWRRLX
West Virginia Regional Weather Roundup
National Weather Service Charleston WV
500 PM EST FRI DEC 15 2017

Note: "fair" indicates few or no clouds below 12,000 feet with no
significant weather and/or obstructions to visibility.

WVZ003-152300-
Northern Panhandle of West Virginia

CITY           SKY/WX    TMP DP  RH WIND       PRES   REMARKS
WHEELING       CLOUDY    27  15  61 SW13G21   29.89R
$$

WVZ009-152300-
Northwest West Virginia

CITY           SKY/WX    TMP DP  RH WIND       PRES   REMARKS
PARKERSBURG    CLOUDY    32  15  49 SW12G21   30.00R
$$

WVZ006-152300-
Western West Virginia

CITY           SKY/WX    TMP DP  RH WIND       PRES   REMARKS
HUNTINGTON     CLOUDY    32  16  51 SW8       30.04R
$$

WVZ015-152300-
West Central West Virginia

CITY           SKY/WX    TMP DP  RH WIND       PRES   REMARKS
CHARLESTON     CLOUDY    32  16  51 SW14G20   30.02R
$$

WVZ022-031-152300-
North Central West Virginia

CITY           SKY/WX    TMP DP  RH WIND       PRES   REMARKS
CLARKSBURG     CLOUDY    30  15  53 SW9       29.93S
MORGANTOWN     CLOUDY    28  15  58 SW7       29.92S
$$

WVZ025-035-042-045-152300-
Southern West Virginia

CITY           SKY/WX    TMP DP  RH WIND       PRES   REMARKS
BECKLEY        CLOUDY    25  16  68 NW10      29.95R
LOGAN          CLOUDY    28  18  64 VRB5G13   30.01F
BLUEFIELD      CLOUDY    25  16  68 NW14G25   29.93R
LEWISBURG      CLOUDY    28  17  63 W9        29.93R
$$

WVZ047-152300-
Northern Mountains of West Virginia

CITY           SKY/WX    TMP DP  RH WIND       PRES   REMARKS
ELKINS         FLURRIES  26  16  65 SW10      29.92R
$$

WVZ052-152300-
Eastern Panhandle of West Virginia

CITY           SKY/WX    TMP DP  RH WIND       PRES   REMARKS
MARTINSBURG    PTCLDY    27  19  72 CALM      29.90S
PETERSBURG     PTCLDY    31  16  54 W13G25    29.90R
$$




USA.gov is the U.S. government's official web portal to all federal, state and local government web resources and services.